Change the Weather History Date:

Saturday, January 29, 2011

  Actual Average Record
Temperature  
Mean Temperature 74 °F -  
Max Temperature 83 °F 81 °F 87 °F (1998)
Min Temperature 66 °F 64 °F 62 °F (1997)
Cooling Degree Days 10    
Growing Degree Days 24 (Base 50)    
Moisture  
Dew Point 57 °F    
Average Humidity 56    
Maximum Humidity 78    
Minimum Humidity 28    
Precipitation  
Precipitation 0.00 in 0.01 in - ()
Sea Level Pressure  
Sea Level Pressure 30.02 in    
Wind  
Wind Speed 12 mph ()    
Max Wind Speed 20 mph    
Max Gust Speed 31 mph    
Visibility 7.0 miles    
Events      
Averages and records for this station are not official NWS values.
T = Trace of Precipitation, MM = Missing Value Source: Averaged Metar Reports

Daily Weather History Graph

Daily Weather History Graph

Search for Another Location

Airport or City:

Trip Planner

Search our weather history database for the weather conditions in past years. The results will help you decide how hot, cold, wet, or windy it might be!

Date:

Astronomy

Jan. 29, 2011 Rise Set
Actual Time 5:59 AM CST 5:40 PM CST
Civil Twilight 5:37 AM CST 6:02 PM CST
Nautical Twilight 5:11 AM CST 6:28 PM CST
Astronomical Twilight 4:46 AM CST 6:53 PM CST
Moon 2:11 AM CST (1/29) 2:00 PM CST (1/29)
Length of Visible Light 12h 25m
Length of Day
11h 41m
Waning Crescent, 18% of the Moon is Illuminated
Jan 29
Waning Crescent
Feb 2
New
Feb 11
First Quarter
Feb 18
Full
Feb 24
Last Quarter

Hourly Weather History & Observations

Time (CST) Temp. Heat Index Dew Point Humidity Pressure Visibility Wind Dir Wind Speed Gust Speed Precip Events Conditions
12:00 AM 69.8 °F - 62.6 °F 78% 30.04 in 6.2 mi ESE 9.2 mph - N/A   Partly Cloudy
1:00 AM 69.8 °F - 60.8 °F 73% 30.01 in 6.2 mi SE 13.8 mph - N/A   Partly Cloudy
3:00 AM 68.0 °F - 57.2 °F 68% 29.97 in 6.2 mi ESE 16.1 mph - N/A   Partly Cloudy
4:00 AM 69.8 °F - 60.8 °F 73% 29.98 in 6.2 mi ESE 13.8 mph 27.6 mph N/A   Partly Cloudy
5:00 AM 68.0 °F - 60.8 °F 78% 30.00 in 6.2 mi ESE 15.0 mph - N/A   Partly Cloudy
6:00 AM 68.0 °F - 60.8 °F 78% 30.02 in 6.2 mi ESE 15.0 mph - N/A   Partly Cloudy
7:00 AM 69.8 °F - 60.8 °F 73% 30.06 in 6.2 mi ESE 13.8 mph - N/A   Partly Cloudy
8:00 AM 73.4 °F - 60.8 °F 65% 30.09 in 6.2 mi ESE 16.1 mph - N/A   Partly Cloudy
9:00 AM 77 °F - 57 °F 40% 29.93 in 9 mi ESE 15.0 mph - -   Scattered Clouds
9:00 AM 77.0 °F - 59.0 °F 54% 30.09 in 6.2 mi ESE 15.0 mph - N/A   Partly Cloudy
10:00 AM 78.8 °F - 59.0 °F 51% 30.09 in 6.2 mi ESE 18.4 mph - N/A   Partly Cloudy
11:00 AM 78.8 °F - 59.0 °F 51% 30.06 in 6.2 mi East 19.6 mph - N/A   Partly Cloudy
12:00 PM 82 °F - 57 °F 32% 29.88 in 9 mi East 19.6 mph - -   Scattered Clouds
12:00 PM 82.4 °F 82.0 °F 57.2 °F 42% 30.05 in 6.2 mi East 19.6 mph - N/A   Partly Cloudy
1:00 PM 82.4 °F 81.4 °F 53.6 °F 37% 30.03 in 6.2 mi East 19.6 mph - N/A   Partly Cloudy
2:00 PM 82.4 °F 81.4 °F 53.6 °F 37% 30.01 in 6.2 mi East 19.6 mph - N/A   Partly Cloudy
3:00 PM 81 °F - 54 °F 28% 29.83 in 12 mi East 16.1 mph - -   Scattered Clouds
3:00 PM 80.6 °F 80.3 °F 53.6 °F 39% 30.00 in 6.2 mi East 16.1 mph 31.1 mph N/A   Partly Cloudy
4:00 PM 78.8 °F - 55.4 °F 44% 30.01 in 6.2 mi East 15.0 mph 27.6 mph N/A   Partly Cloudy
5:00 PM 77.0 °F - 55.4 °F 47% 30.03 in 6.2 mi East 9.2 mph 25.3 mph N/A   Partly Cloudy
6:00 PM 73 °F - 55 °F 44% 29.90 in 12 mi East 6.9 mph - -  
6:00 PM 73.4 °F - 55.4 °F 53% 30.04 in 6.2 mi East 6.9 mph 19.6 mph N/A   Unknown
7:00 PM 71.6 °F - 55.4 °F 57% 30.06 in 6.2 mi East 10.4 mph - N/A   Unknown
8:00 PM 68.0 °F - 55.4 °F 64% 30.09 in 6.2 mi ESE 5.8 mph - N/A   Unknown
9:00 PM 68 °F - 57 °F 60% 29.96 in 12 mi ESE 9.2 mph - -  
9:00 PM 68.0 °F - 57.2 °F 68% 30.11 in 6.2 mi ESE 9.2 mph - N/A   Unknown
10:00 PM 66.2 °F - 55.4 °F 68% 30.10 in 6.2 mi SE 8.1 mph - N/A   Unknown
11:00 PM 66.2 °F - 55.4 °F 68% 30.11 in 6.2 mi ESE 8.1 mph - N/A   Unknown